GFSFLT2_850_temp_114.txt.gz
Temp
22 22 21 21 21 21 20 20 19 19 18 18 17 17 17 16 16 16 16 15 16 15 15 16 15 15 14 14 14 14 14 13
23 22 22 21 21 21 20 20 19 19 18 18 17 17 17 16 16 16 16 15 15 15 15 15 15 15 14 14 14 13 14 13
22 22 22 21 21 21 20 20 20 19 18 17 17 17 17 16 16 16 16 15 15 15 15 15 15 14 14 14 14 13 13 14
22 22 22 21 21 20 20 20 20 19 18 17 17 17 16 16 15 15 15 15 14 14 14 15 14 14 14 14 13 13 14 14
22 21 21 21 21 20 20 20 20 20 19 18 17 16 16 15 15 15 14 14 14 14 14 14 14 14 13 13 13 13 13 13
22 21 21 21 20 20 20 20 20 20 19 18 17 16 15 15 15 15 14 14 14 14 14 14 14 14 13 13 13 13 14 13
22 22 22 21 21 20 20 20 20 20 19 18 17 16 16 15 15 14 14 14 14 14 14 13 14 13 13 13 13 13 13 12
22 22 21 22 22 21 20 20 20 19 19 19 18 16 16 15 14 14 14 14 14 14 13 13 13 13 13 13 12 12 12 12
22 21 22 22 22 21 20 20 19 19 19 18 17 16 16 15 15 14 14 13 13 13 13 13 12 12 12 12 12 12 12 11
21 21 21 22 22 21 21 20 19 18 18 18 18 17 16 15 14 14 14 13 13 13 13 13 12 12 12 12 11 11 11 10
21 21 21 21 21 21 20 20 19 19 18 17 17 17 16 15 15 14 13 13 13 13 13 13 12 12 11 11 11 11 10 10
22 21 21 21 20 20 19 18 17 17 17 17 16 16 16 16 14 14 13 12 12 12 12 12 12 12 11 11 11 11 10 10
22 22 21 20 19 19 18 18 18 17 16 16 16 16 16 16 14 14 13 12 12 12 12 12 11 11 10 10 10 10 10 10
22 22 22 21 20 19 18 18 18 17 16 16 16 15 15 16 15 14 13 12 12 12 11 11 11 11 10 10 10 10 10 10
20 21 22 22 20 19 19 19 18 17 15 15 16 15 15 15 15 14 14 13 12 12 11 11 11 10 10 10 10 10 10 10
19 17 17 19 20 19 19 19 19 19 19 16 16 15 15 15 14 13 13 12 11 11 11 11 10 10 9 10 10 10 9 9
16 15 15 15 17 18 19 18 19 19 19 18 16 15 15 14 14 13 13 12 12 11 11 11 11 11 10 9 9 9 10 10
16 16 15 15 16 17 18 19 18 17 17 17 16 14 14 14 13 13 12 12 11 11 11 11 11 10 9 9 10 9 10 10
14 15 16 15 16 16 16 17 18 18 17 16 16 14 14 14 14 13 12 11 11 11 11 11 11 9 9 10 10 9 10 10
13 13 14 15 15 16 16 16 17 17 17 17 16 15 15 15 14 14 12 11 10 10 11 11 11 9 9 10 10 9 10 10

GFSFLT2_850_temp_117.txt.gz
Temp
22 22 21 21 20 20 20 20 20 19 19 18 18 17 17 16 16 17 16 16 16 16 15 15 15 15 15 14 14 14 13 13
22 22 21 21 20 20 20 19 20 19 19 18 18 17 17 16 16 16 16 16 16 15 15 15 15 15 14 14 14 14 14 13
22 22 21 21 21 20 19 19 19 19 19 18 18 17 17 16 16 16 16 16 15 15 15 15 14 14 14 14 14 14 14 13
22 22 22 21 21 20 20 19 19 18 18 18 18 17 17 17 16 16 15 15 15 15 15 15 14 14 14 14 14 14 13 13
22 22 22 21 21 21 21 20 19 18 18 18 18 17 17 16 16 15 15 15 15 15 15 14 14 14 14 14 14 14 13 13
22 22 22 21 21 21 21 21 20 19 18 18 18 17 17 16 16 15 15 14 14 14 15 14 14 14 14 13 13 13 13 13
22 22 22 22 21 21 21 21 20 20 19 18 18 18 17 16 16 15 15 14 14 14 14 14 14 14 13 13 13 13 13 13
22 22 22 21 21 21 21 21 21 20 19 19 18 18 17 16 15 15 14 14 14 14 14 14 14 13 13 13 13 12 12 13
22 22 22 21 21 21 21 21 20 20 20 19 18 18 17 16 15 15 14 14 14 13 13 13 13 13 13 12 12 12 12 12
22 21 21 21 21 21 21 20 20 20 20 19 19 18 17 16 15 15 14 14 13 13 13 13 13 12 12 12 12 12 12 12
21 21 21 20 21 20 20 19 19 19 19 19 18 18 17 16 16 15 14 13 13 13 13 13 13 12 12 12 11 11 11 11
22 22 22 21 20 19 19 18 18 18 18 18 18 18 17 16 16 15 14 13 12 12 12 12 12 12 12 12 11 11 11 11
22 22 22 21 20 19 18 19 19 17 17 17 17 17 17 16 16 15 14 13 13 12 12 12 12 12 12 11 10 11 10 10
20 20 21 22 21 21 19 19 19 19 17 16 16 16 16 16 16 15 14 12 12 11 12 12 12 11 11 11 10 10 10 10
18 19 19 20 21 20 18 17 17 19 18 18 16 16 16 16 16 15 14 13 13 11 11 12 12 12 11 11 10 10 9 10
17 18 18 18 17 16 16 19 19 20 19 19 18 16 16 15 15 15 14 13 12 11 12 11 12 12 11 10 10 10 10 10
14 14 16 15 14 15 16 17 18 18 19 19 18 17 16 15 15 15 15 14 12 12 11 11 11 11 11 10 10 10 9 10
14 14 14 13 14 14 14 16 17 18 18 18 18 17 16 15 14 14 14 14 13 12 11 10 11 10 10 10 10 10 10 9
14 14 14 13 13 14 14 15 17 17 17 15 14 18 17 16 15 14 14 14 13 12 11 11 11 11 10 10 9 10 10 9
10 13 14 14 14 13 14 14 14 16 17 17 17 18 18 17 15 13 13 13 12 11 11 11 11 10 10 10 10 9 10 9

GFSFLT2_850_temp_123.txt.gz
Temp
21 20 19 19 19 19 18 18 18 18 18 18 18 17 17 17 17 17 17 17 16 16 16 17 17 16 16 15 14 14 14 14
21 20 20 19 19 19 18 18 18 18 18 18 18 17 17 17 17 17 16 16 16 16 16 17 16 16 15 15 14 14 14 13
20 20 20 19 19 19 18 18 18 18 18 18 17 17 16 16 16 16 16 16 16 16 16 16 16 16 15 15 14 14 14 14
20 20 20 20 19 19 18 18 17 18 18 18 17 17 17 16 16 16 16 15 15 15 16 16 15 16 15 15 14 14 14 14
20 20 20 20 19 19 18 18 17 18 17 18 17 17 16 16 15 15 15 15 15 15 15 16 15 15 15 15 14 14 14 13
19 19 19 20 19 19 18 18 18 18 18 18 17 17 17 16 16 15 15 15 15 15 15 15 15 15 15 14 14 14 14 13
19 19 19 20 20 20 19 19 18 18 18 18 18 17 17 17 16 16 15 15 15 15 15 15 15 15 14 14 14 14 13 14
19 19 19 19 19 20 19 19 20 19 18 18 18 18 18 17 17 16 15 15 14 14 14 14 14 14 14 14 14 13 13 13
19 19 19 19 19 19 20 19 20 20 19 19 18 18 18 17 17 16 16 15 14 14 14 14 14 14 13 13 13 13 13 13
19 19 19 19 20 19 19 19 19 20 20 19 19 18 18 18 17 16 16 15 14 14 14 13 13 13 13 13 13 13 13 12
19 19 19 20 19 19 19 19 19 19 20 19 19 18 18 18 17 16 15 15 15 14 13 13 13 13 13 13 12 12 12 12
18 19 19 19 19 18 18 18 18 18 19 19 19 18 18 17 17 17 15 15 15 14 13 13 13 12 12 12 12 12 11 11
16 16 18 18 17 18 18 19 19 18 18 18 18 18 18 17 17 16 16 15 15 14 13 13 12 12 12 12 12 12 11 11
16 16 17 17 17 18 18 18 18 18 18 18 18 18 18 17 17 17 17 16 15 14 14 13 12 12 12 12 11 11 12 12
15 16 16 16 17 17 18 17 16 17 18 18 18 17 18 18 17 17 17 16 16 15 14 13 12 12 12 12 11 11 12 12
14 16 17 17 16 16 16 18 18 19 19 18 18 17 17 17 18 16 16 16 15 15 14 12 12 12 12 12 11 11 11 11
10 13 16 17 17 14 14 14 15 17 18 17 18 18 17 17 17 16 16 15 15 15 14 12 11 11 11 11 11 10 10 10
8 11 14 15 15 14 13 13 13 14 15 15 16 16 17 17 18 17 16 15 15 15 14 13 12 11 11 11 11 11 11 10
7 9 10 11 12 12 12 13 14 14 13 13 14 15 16 17 18 17 17 16 16 15 14 13 13 12 11 11 11 11 10 11
6 8 9 10 11 12 12 12 13 12 13 13 13 15 17 17 17 17 17 18 17 16 15 13 13 13 12 11 11 11 11 11

GFSFLT2_850_temp_126.txt.gz
Temp
21 20 19 19 19 19 19 18 18 18 18 18 18 18 18 17 17 17 17 17 17 17 17 16 16 16 16 16 15 15 14 14
20 19 19 19 18 18 18 18 18 18 18 18 18 17 17 17 17 17 17 17 17 17 16 16 16 16 16 15 15 15 14 14
17 18 19 18 18 17 17 18 18 17 17 17 17 17 16 16 16 17 16 16 16 16 16 16 16 15 15 15 15 14 14 14
16 17 17 15 15 16 17 17 17 17 17 17 16 15 14 15 15 16 16 16 15 16 16 15 15 14 15 15 14 14 14 14
16 15 16 16 15 15 16 15 15 16 16 17 15 14 14 14 14 15 15 15 15 15 15 15 13 13 14 13 14 13 14 14
16 15 15 15 16 15 17 14 17 16 14 15 14 14 14 14 14 14 14 14 14 13 13 13 14 15 13 13 13 14 14 14
16 15 15 14 15 15 15 15 15 18 18 17 17 14 14 14 14 14 14 14 14 14 14 13 13 13 13 13 13 13 13 14
16 15 15 15 16 16 16 17 14 17 18 18 18 16 14 14 14 14 14 14 14 14 13 13 13 13 13 13 13 13 13 13
18 15 16 19 19 18 16 16 17 19 18 18 18 18 17 17 16 14 16 14 13 13 13 13 13 13 13 12 13 14 13 12
19 16 14 18 19 18 15 15 19 17 19 18 17 17 17 18 17 16 15 14 14 14 15 15 13 13 13 13 12 13 12 12
19 18 15 15 19 17 16 15 18 18 19 18 19 17 17 18 17 17 16 16 15 15 14 14 13 13 13 12 12 12 12 12
18 18 15 14 15 16 14 14 18 19 19 19 19 18 17 18 18 17 16 16 15 15 14 14 13 12 12 13 12 12 12 12
16 17 16 15 15 15 15 15 16 17 17 18 18 18 18 17 17 17 17 16 16 16 15 14 13 13 12 12 12 12 12 12
12 15 17 15 15 15 16 16 15 15 15 16 18 18 18 17 17 17 17 16 15 15 14 13 13 13 12 12 12 12 12 12
8 11 15 16 15 15 16 15 15 14 14 15 17 17 17 17 17 15 15 16 16 16 15 15 14 13 12 12 12 13 14 12
6 8 11 14 14 15 15 15 15 15 15 15 14 17 17 16 16 13 13 16 16 16 15 15 13 12 12 12 13 14 14 15
6 7 8 11 14 14 14 15 15 15 14 14 16 18 17 14 14 15 15 16 16 16 15 14 13 12 12 12 11 11 12 13
5 7 7 9 12 14 15 13 14 14 14 14 15 14 15 15 14 15 16 16 16 16 16 15 14 13 12 12 12 11 11 10
3 6 8 9 10 12 14 13 13 13 13 13 13 14 14 15 14 14 15 16 17 16 15 17 17 15 14 12 12 12 12 11
2 5 6 8 9 10 11 12 12 12 13 13 13 13 13 13 13 14 14 17 16 16 15 16 18 16 15 13 12 11 11 11

GFSFLT2_850_temp_129.txt.gz
Temp
17 19 18 18 19 19 19 19 19 18 18 18 18 18 18 18 18 18 17 17 17 16 17 16 16 16 16 16 15 15 15 15
17 17 18 18 18 18 18 18 18 18 18 18 18 17 17 17 17 17 17 17 17 16 16 16 16 16 16 16 15 15 15 15
17 16 16 17 18 18 18 18 18 18 18 17 17 17 17 17 17 17 17 17 16 16 16 16 16 15 15 15 15 15 15 15
18 16 17 16 16 16 18 17 17 17 17 17 17 15 15 15 15 16 16 16 16 16 16 16 15 15 15 15 15 15 16 15
18 17 17 17 17 17 16 15 16 16 17 16 17 15 15 15 15 15 15 15 15 16 16 15 15 15 15 14 15 15 16 15
19 18 17 17 18 18 17 16 16 16 15 15 15 15 15 15 15 15 14 14 14 15 14 14 14 14 14 14 15 15 15 15
20 19 18 17 16 18 17 17 17 17 16 15 15 15 15 15 15 15 14 14 14 14 15 14 14 14 14 14 14 15 15 15
20 19 18 17 17 17 17 16 17 15 15 15 15 15 16 15 15 15 15 14 15 14 15 15 14 14 14 14 14 14 14 14
19 19 18 17 16 16 16 17 17 16 14 15 17 15 16 15 15 15 15 15 15 15 15 15 14 14 14 14 14 14 14 14
18 19 19 17 16 16 16 16 16 16 15 14 17 17 15 15 15 15 14 14 15 14 14 14 14 14 13 13 13 14 14 14
18 18 19 17 16 15 15 16 16 16 16 15 16 18 16 15 15 16 15 14 14 14 14 14 14 14 14 13 13 13 14 13
14 15 17 18 16 15 15 16 16 16 16 15 15 16 18 15 14 14 16 14 14 15 14 15 13 14 15 14 13 13 13 13
11 12 14 16 17 15 15 15 16 15 16 15 16 15 18 18 15 14 17 16 16 16 14 14 13 13 13 13 13 13 12 12
9 10 12 16 17 16 15 16 16 16 16 16 18 16 18 19 18 14 16 16 15 14 15 14 13 13 13 13 13 14 13 13
5 7 9 14 15 16 17 17 16 16 16 16 16 16 16 18 18 16 16 17 15 15 13 13 13 13 13 13 14 15 16 15
4 4 6 9 11 14 17 16 17 17 16 16 16 15 14 14 16 15 14 15 15 14 13 13 12 12 13 12 13 15 15 17
2 3 5 8 10 12 14 16 17 17 17 16 15 15 14 14 14 13 14 14 14 14 14 13 13 12 12 12 14 13 13 14
1 3 5 7 9 12 15 14 15 16 15 15 15 14 14 14 14 14 14 14 14 14 13 13 15 13 14 14 13 13 13 13
-0 1 3 5 8 10 11 12 13 13 14 10 14 14 13 13 14 14 14 14 14 13 13 14 15 15 15 15 13 13 15 13
-1 0 1 3 7 9 8 10 11 11 11 11 13 13 13 13 13 14 13 14 13 13 13 13 14 15 14 16 13 13 13 14

GFSFLT2_850_temp_132.txt.gz
Temp
18 18 19 19 19 19 19 19 19 19 19 19 18 18 18 18 17 17 17 17 17 16 16 16 16 16 16 16 16 16 15 14
17 17 18 18 18 18 18 18 18 18 18 18 18 18 17 17 17 17 17 16 16 16 16 16 16 16 16 17 16 16 15 15
18 17 17 18 18 18 18 18 18 18 18 18 17 17 17 17 17 17 17 16 16 16 16 16 16 16 17 16 16 16 14 15
19 19 16 17 17 18 18 17 17 17 17 17 17 17 17 17 17 17 16 16 15 16 16 16 16 16 16 16 16 15 15 15
21 20 19 17 16 16 17 17 17 17 17 17 17 17 16 16 16 16 16 16 16 16 16 16 16 16 15 15 16 15 15 15
21 19 19 18 17 17 17 17 17 17 17 17 17 16 16 15 16 16 16 16 16 16 16 16 16 15 14 15 15 15 14 15
20 20 19 19 19 18 17 17 17 17 17 17 16 16 16 16 15 16 16 15 15 15 15 15 15 15 14 14 15 15 15 14
18 19 19 19 18 18 18 18 17 17 16 16 16 16 16 16 16 15 16 15 15 15 15 15 15 15 14 14 15 15 15 14
17 18 19 19 19 18 17 17 17 17 16 16 16 16 16 16 16 16 15 15 15 15 15 15 15 15 15 15 14 14 14 15
16 17 17 18 18 18 17 17 17 17 16 17 16 16 16 15 16 16 16 15 15 15 15 15 15 15 15 14 14 14 14 14
11 14 14 15 16 15 18 17 17 17 16 16 17 17 16 16 15 16 16 15 15 15 15 15 15 15 14 14 14 14 14 14
9 10 11 13 14 15 15 17 16 17 16 16 16 17 16 16 15 15 15 15 15 15 15 15 14 14 14 15 14 14 14 14
8 9 8 9 11 11 13 14 16 16 16 16 16 16 17 16 15 16 15 15 15 15 15 15 14 14 14 14 14 14 14 14
4 7 7 10 11 9 10 12 14 16 15 16 16 16 16 17 16 16 16 16 14 14 14 13 13 13 14 14 14 13 13 14
0 4 6 9 10 10 10 11 13 15 15 15 16 15 16 16 17 15 15 16 16 14 14 14 13 13 13 13 13 13 15 15
-0 1 4 5 8 6 7 8 11 13 16 15 15 15 15 16 16 14 14 15 16 15 14 14 13 12 13 13 14 14 15 15
-1 -0 1 3 4 5 6 8 12 14 15 15 15 15 16 15 15 15 14 14 15 15 13 14 12 12 13 13 12 14 15 13
-1 -0 0 2 4 5 6 8 11 13 14 15 15 15 14 14 15 15 15 14 14 15 14 13 14 12 12 13 15 15 15 14
-2 -1 -1 1 3 4 6 8 11 12 13 14 12 14 14 13 14 14 14 14 14 14 14 14 13 13 12 14 14 15 16 15
-2 -2 -1 0 2 3 6 8 10 11 11 12 11 10 11 13 12 13 14 14 14 14 14 14 14 13 13 13 13 14 14 13